Change the Weather History Date:

Saturday, October 13, 2012

  Actual Average (EGSC) Record (EGSC)
Temperature  
Mean Temperature 46 °F -  
Max Temperature 52 °F 58 °F 69 °F (2001)
Min Temperature 40 °F 47 °F 37 °F (1999)
Degree Days  
Heating Degree Days 19    
Moisture  
Dew Point 42 °F    
Average Humidity 84    
Maximum Humidity 94    
Minimum Humidity 71    
Precipitation  
Precipitation 0.00 in - - ()
Sea Level Pressure  
Sea Level Pressure 29.63 in    
Wind  
Wind Speed 5 mph ()    
Max Wind Speed 9 mph    
Max Gust Speed -    
Visibility 6.2 miles    
Events Rain    
Averages and records for this station are not official NWS values.
T = Trace of Precipitation, MM = Missing Value Source: Averaged Metar Reports

Daily Weather History Graph

Daily Weather History Graph

Search for Another Location

Airport or City:

Trip Planner

Search our weather history database for the weather conditions in past years. The results will help you decide how hot, cold, wet, or windy it might be!

Date:

Astronomy

Oct. 13, 2012 Rise Set
Actual Time 7:20 AM BST 6:06 PM BST
Civil Twilight 6:45 AM BST 6:41 PM BST
Nautical Twilight 6:06 AM BST 7:20 PM BST
Astronomical Twilight 5:26 AM BST 7:59 PM BST
Moon 4:39 AM BST (10/13) 4:51 PM BST (10/13)
Length of Visible Light 11h 55m
Length of Day
10h 46m
Waning Crescent, 6% of the Moon is Illuminated
Oct 13
Waning Crescent
Oct 15
New
Oct 22
First Quarter
Oct 29
Full
Nov 7
Last Quarter

Hourly Weather History & Observations

Time (BST) Temp. Windchill Dew Point Humidity Pressure Visibility Wind Dir Wind Speed Gust Speed Precip Events Conditions
12:58 AM 42.6 °F 40.9 °F 39.0 °F 87% 29.73 in 6.2 mi SSE 3.5 mph - N/A   Clear
1:58 AM 42.3 °F 40.5 °F 39.0 °F 88% 29.73 in 6.2 mi SSE 3.5 mph - N/A   Mostly Cloudy
2:58 AM 44.1 °F 40.1 °F 40.3 °F 87% 29.71 in 6.2 mi South 6.9 mph - N/A   Overcast
3:58 AM 45.0 °F 41.2 °F 41.0 °F 86% 29.69 in 6.2 mi South 6.9 mph - N/A   Overcast
4:58 AM 45.3 °F 43.0 °F 41.5 °F 87% 29.68 in 6.2 mi SSE 4.6 mph - N/A   Mostly Cloudy
5:58 AM 43.5 °F 40.1 °F 40.5 °F 89% 29.66 in 6.2 mi SSE 5.8 mph - N/A   Partly Cloudy
7:58 AM 40.6 °F 38.6 °F 39.0 °F 94% 29.65 in 6.2 mi South 3.5 mph - N/A   Clear
9:58 AM 46.2 °F 44.1 °F 42.4 °F 87% 29.66 in 6.2 mi SW 4.6 mph - N/A   Clear
11:58 AM 50.0 °F - 43.9 °F 79% 29.63 in 6.2 mi WNW 3.5 mph - N/A   Mostly Cloudy
12:58 PM 52.2 °F - 43.7 °F 73% 29.62 in 6.2 mi West 4.6 mph - N/A   Clear
1:25 PM 51.8 °F - 44.6 °F 76% 29.61 in 6.2 mi West 9.2 mph - N/A   Mostly Cloudy
1:27 PM 51.8 °F - 42.8 °F 71% 29.61 in 6.2 mi West 8.1 mph - N/A   Mostly Cloudy
1:58 PM 52.0 °F - 43.3 °F 72% 29.62 in 6.2 mi WNW 5.8 mph - N/A   Overcast
2:58 PM 52.2 °F - 43.5 °F 72% 29.61 in 6.2 mi West 8.1 mph - N/A   Overcast
3:58 PM 51.1 °F - 43.5 °F 75% 29.60 in 6.2 mi NW 8.1 mph - N/A   Partly Cloudy
4:54 PM 50.0 °F - 42.8 °F 76% 29.59 in 6.2 mi NNW 8.1 mph - N/A   Mostly Cloudy
4:57 PM 48.2 °F - 42.8 °F 82% 29.58 in 6.2 mi NW 4.6 mph - N/A   Mostly Cloudy
4:58 PM 48.2 °F - 42.8 °F 82% 29.59 in 6.2 mi NNW 4.6 mph - N/A   Mostly Cloudy
5:58 PM 46.2 °F 43.3 °F 41.9 °F 85% 29.60 in 6.2 mi WNW 5.8 mph - N/A   Clear
6:58 PM 44.2 °F - 40.6 °F 87% 29.61 in 6.2 mi WSW 1.2 mph - N/A   Scattered Clouds
7:58 PM 44.4 °F 42.0 °F 41.7 °F 90% 29.62 in 6.2 mi West 4.6 mph - N/A   Overcast
8:58 PM 44.2 °F 41.8 °F 41.7 °F 91% 29.62 in 6.2 mi WSW 4.6 mph - N/A   Overcast
9:46 PM 44.6 °F 40.7 °F 42.8 °F 93% 29.60 in 6.2 mi West 6.9 mph - N/A Rain Light Rain
9:58 PM 45.3 °F 41.1 °F 42.6 °F 90% 29.61 in 6.2 mi West 8.1 mph - 0.00 in   Light Drizzle
10:03 PM 44.6 °F 40.2 °F 42.8 °F 93% 29.60 in 6.2 mi West 8.1 mph - N/A   Overcast
10:58 PM 44.4 °F 40.5 °F 42.1 °F 91% 29.61 in 6.2 mi West 6.9 mph - 0.00 in   Mostly Cloudy
11:58 PM 43.9 °F 39.9 °F 41.7 °F 92% 29.60 in 6.2 mi West 6.9 mph - N/A   Overcast